Back to catalog

CZ-6A DEB

AliveSSO
NORAD 56595·DEBRIS·🇨🇳 China

Launched Nov 11, 2022 from Taiyuan Satellite Launch Center

Loading…

Next Passes (next 24 hours)

TLE

FreshSource: Space-Track

Epoch: Sep 13, 2026, 17:35 UTC

1 56595U 22151ADT 26256.73306314  .00000836  00000-0  36939-3 0  9999
2 56595  98.7354 258.3607 0130771 284.0853  74.5819 14.21491385175474

Track CZ-6A DEB in real time with AllMySat

Download on the App Store